Location: Drocourt
(49.0571°N, 1.7669°E)
Time: 09:18:10
(UTC+00:00)

Cosmos 2058 - Pass Details

Date: 09 February 2023
Orbit: 555 x 577 km, 82.5° (Epoch: 24 March)

Event Time Altitude Azimuth Distance (km) Brightness Sun altitude
Rises 18:02:15 0° 148° (SSE) 2,787 6.2 -10.2°
Reaches altitude 10° 18:04:57 10° 130° (SE) 1,892 5.2 -10.6°
Maximum altitude 18:07:50 18° 86° (E) 1,427 4.3 -11.1°
Enters shadow 18:10:38 10° 43° (NE) 1,869 5.1 -11.5°
